Location: Vinland
(47.7731°N, 122.6974°W)
Time: 10:05:21
(UTC+00:00)

Courier 1B Rocket - All Passes

Search period start: 29 March 2023 00:00
Search period end: 08 April 2023 00:00
Orbit: 920 x 1202 km, 28.2° (Epoch: 28 March)

Date Brightness Start Highest point End Pass type
(mag) Time Alt. Az. Time Alt. Az. Time Alt. Az.
29 Mar - 03:33:45 10° SSW 03:36:39 13° S 03:39:29 10° SSE visible
29 Mar - 05:25:54 10° SSW 05:28:46 13° S 05:31:35 10° SSE visible
30 Mar - 02:33:37 10° S 02:35:54 12° SSE 02:38:09 10° SSE daylight
30 Mar - 04:24:39 10° SSW 04:28:04 14° S 04:31:22 10° SSE visible
31 Mar - 03:23:42 10° SSW 03:27:20 14° S 03:30:50 10° SSE visible
31 Mar - 05:17:01 10° SSW 05:19:26 12° SSW 05:21:50 10° S visible
01 Apr - 02:23:02 10° SSW 02:26:33 14° S 02:29:58 10° SE daylight
01 Apr - 04:15:19 10° SW 04:18:44 14° S 04:22:03 10° SSE visible
02 Apr - 01:22:46 10° S 01:25:45 13° SSE 01:28:41 10° SE daylight
02 Apr - 03:14:03 10° SW 03:17:58 15° S 03:21:47 10° SSE visible
02 Apr - 05:09:05 10° SSW 05:10:04 10° SSW 05:11:03 10° S visible
03 Apr - 00:23:24 10° S 00:24:58 11° SSE 00:26:31 10° SSE daylight
03 Apr - 02:13:04 10° SSW 02:17:11 16° S 02:21:10 10° SE daylight
03 Apr - 04:06:20 10° SW 04:09:22 13° SSW 04:12:20 10° SSE visible
04 Apr - 01:12:23 10° SSW 01:16:21 15° S 01:20:14 10° SE daylight
04 Apr - 03:04:42 10° SW 03:08:37 15° S 03:12:24 10° SSE visible
05 Apr - 00:12:05 10° SSW 00:15:32 13° SSE 00:18:56 10° SE daylight
05 Apr - 02:03:28 10° SW 02:07:48 16° S 02:12:01 10° SSE daylight
05 Apr - 03:57:58 10° SW 03:59:58 11° SSW 04:01:55 10° S visible
05 Apr - 23:12:33 10° S 23:14:42 11° SSE 23:16:52 10° SE daylight
06 Apr - 01:02:31 10° SSW 01:06:58 16° S 01:11:19 10° SE daylight
06 Apr - 02:55:41 10° SW 02:59:13 14° SSW 03:02:39 10° SSE daylight
07 Apr - 00:01:51 10° SSW 00:06:06 16° S 00:10:18 10° SE daylight
07 Apr - 01:54:08 10° SW 01:58:24 16° S 02:02:34 10° SSE daylight
07 Apr - 23:01:36 10° SSW 23:05:15 14° SSE 23:08:54 10° SE daylight
